Weather History for KVAY - May, 2012

Change the Weather History Date:

Thursday, May 24, 2012

  Actual Average (KWRI) Record (KWRI)
Temperature  
Mean Temperature 73 °F -  
Max Temperature 82 °F 71 °F 89 °F (2004)
Min Temperature 66 °F 51 °F 44 °F (1997)
Cooling Degree Days 8    
Growing Degree Days 23 (Base 50)    
Moisture  
Dew Point 64 °F    
Average Humidity 83    
Maximum Humidity 94    
Minimum Humidity 60    
Precipitation  
Precipitation 0.13 in - - ()
Sea Level Pressure  
Sea Level Pressure 30.09 in    
Wind  
Wind Speed 2 mph (East)    
Max Wind Speed 7 mph    
Max Gust Speed -    
Visibility 9 miles    
Events Rain    
Averages and records for this station are not official NWS values.
T = Trace of Precipitation, MM = Missing Value Source: NWS Daily Summary

Daily Weather History Graph

Daily Weather History Graph

Search for Another Location

Airport or City:

Trip Planner

Search our weather history database for the weather conditions in past years. The results will help you decide how hot, cold, wet, or windy it might be!

Date:

Astronomy

May. 24, 2012 Rise Set
Actual Time 5:36 AM EDT 8:16 PM EDT
Civil Twilight 5:05 AM EDT 8:47 PM EDT
Nautical Twilight 4:26 AM EDT 9:27 PM EDT
Astronomical Twilight 3:41 AM EDT 10:11 PM EDT
Moon 8:34 AM EDT (5/24) 11:15 PM EDT (5/24)
Length of Visible Light 15h 42m
Length of Day
14h 39m
Waxing Crescent, 12% of the Moon is Illuminated
May 24
Waxing Crescent
May 28
First Quarter
Jun 4
Full
Jun 11
Last Quarter
Jun 19
New

Hourly Weather History & Observations

Time (EDT) Temp. Heat Index Dew Point Humidity Pressure Visibility Wind Dir Wind Speed Gust Speed Precip Events Conditions
12:54 AM 66.9 °F - 63.0 °F 87% 30.02 in 10.0 mi Calm Calm - N/A   Overcast
1:36 AM 66.2 °F - 62.6 °F 88% 30.03 in 10.0 mi ESE 3.5 mph - N/A   Overcast
1:52 AM 66.2 °F - 62.6 °F 88% 30.02 in 10.0 mi Calm Calm - N/A   Overcast
1:54 AM 66.0 °F - 63.0 °F 90% 30.02 in 10.0 mi Calm Calm - N/A   Overcast
2:47 AM 66.2 °F - 62.6 °F 88% 30.02 in 9.0 mi Calm Calm - N/A   Overcast
2:54 AM 66.0 °F - 63.0 °F 90% 30.02 in 9.0 mi SE 3.5 mph - N/A   Overcast
3:18 AM 66.2 °F - 62.6 °F 88% 30.03 in 9.0 mi Calm Calm - N/A   Overcast
3:54 AM 66.0 °F - 64.0 °F 93% 30.03 in 9.0 mi NE 3.5 mph - N/A   Overcast
4:15 AM 66.2 °F - 64.4 °F 94% 30.03 in 9.0 mi Calm Calm - N/A   Overcast
4:54 AM 66.0 °F - 63.0 °F 90% 30.04 in 10.0 mi Calm Calm - N/A   Overcast
5:54 AM 66.9 °F - 64.0 °F 90% 30.06 in 8.0 mi East 3.5 mph - N/A   Overcast
6:54 AM 66.9 °F - 64.0 °F 90% 30.08 in 8.0 mi East 3.5 mph - N/A   Overcast
7:14 AM 66.2 °F - 64.4 °F 94% 30.09 in 6.0 mi Variable 4.6 mph - N/A   Overcast
7:54 AM 68.0 °F - 64.9 °F 90% 30.09 in 5.0 mi Variable 3.5 mph - N/A   Overcast
8:21 AM 69.8 °F - 64.4 °F 83% 30.10 in 7.0 mi East 6.9 mph - N/A   Overcast
8:49 AM 69.8 °F - 64.4 °F 83% 30.11 in 9.0 mi ESE 5.8 mph - N/A   Overcast
8:54 AM 70.0 °F - 64.9 °F 84% 30.11 in 9.0 mi East 4.6 mph - N/A   Overcast
9:49 AM 73.4 °F - 66.2 °F 78% 30.11 in 10.0 mi ESE 6.9 mph - N/A   Overcast
9:54 AM 75.0 °F - 66.9 °F 76% 30.11 in 10.0 mi Variable 5.8 mph - N/A   Overcast
10:09 AM 75.2 °F - 66.2 °F 73% 30.11 in 10.0 mi Variable 6.9 mph - N/A   Scattered Clouds
10:54 AM 78.1 °F - 66.9 °F 68% 30.11 in 10.0 mi ESE 6.9 mph - N/A   Partly Cloudy
11:54 AM 80.1 °F 82.3 °F 66.9 °F 64% 30.11 in 10.0 mi ESE 4.6 mph - N/A   Scattered Clouds
12:54 PM 79.0 °F - 64.0 °F 60% 30.10 in 10.0 mi Variable 4.6 mph - N/A   Mostly Cloudy
1:54 PM 66.9 °F - 62.1 °F 84% 30.13 in 7.0 mi East 4.6 mph - 0.05 in Rain Light Rain
2:05 PM 66.2 °F - 62.6 °F 88% 30.11 in 1.8 mi ENE 4.6 mph - 0.07 in Rain Heavy Rain
2:13 PM 66.2 °F - 62.6 °F 88% 30.13 in 3.0 mi Calm Calm - 0.07 in Rain Light Rain
2:54 PM 66.9 °F - 63.0 °F 87% 30.13 in 9.0 mi NNE 3.5 mph - 0.08 in   Unknown
3:54 PM 66.0 °F - 63.0 °F 90% 30.12 in 6.0 mi Calm Calm - N/A   Mist
4:54 PM 69.1 °F - 63.0 °F 81% 30.11 in 10.0 mi Variable 4.6 mph - 0.00 in   Unknown
5:54 PM 73.9 °F - 66.0 °F 76% 30.11 in 10.0 mi East 6.9 mph - N/A   Clear
6:54 PM 75.9 °F - 64.0 °F 67% 30.10 in 10.0 mi Calm Calm - N/A   Mostly Cloudy
7:54 PM 72.0 °F - 59.0 °F 64% 30.12 in 10.0 mi SE 5.8 mph - N/A   Overcast
8:54 PM 70.0 °F - 60.1 °F 71% 30.13 in 10.0 mi Calm Calm - N/A   Overcast
9:54 PM 69.1 °F - 61.0 °F 75% 30.14 in 10.0 mi Calm Calm - N/A   Scattered Clouds
10:54 PM 68.0 °F - 62.1 °F 81% 30.15 in 10.0 mi East 3.5 mph - N/A   Overcast
11:54 PM 66.9 °F - 64.0 °F 90% 30.15 in 10.0 mi Calm Calm - N/A   Overcast